GPS BIIF-10 (PRN 08)

Last updated on Sat Dec 13 2025 00:03:17 GMT+0000 (Coordinated Universal Time)

1 40730U 15033A 25345.75339253 -.00000071 00000+0 00000+0 0 9999 2 40730 54.1315 274.8134 0110892 26.7842 333.7997 2.00565636 76236
UTC large
Height (km)
Speed (km/s)
/
Latitude / Longitude
Inclination (degrees)
Orbital Period (minutes)
Azimuth
Elevation
Range (km)
Doppler Factor

Next 0 passes for location: London (51.5072 / 0.1276)

Sorry there are no passes over London.